Location: LDNL
(36.4545°S, 141.6685°E)
Time: 17:24:13
(UTC+11:00)

Envisat - Visible Passes

Search period start: 01 December 2022 00:00
Search period end: 11 December 2022 00:00
Orbit: 763 x 765 km, 98.2° (Epoch: 30 November)

Date Brightness Start Highest point End Pass type
(mag) Time Alt. Az. Time Alt. Az. Time Alt. Az.
01 Dec 5.8 03:41:59 10° E 03:44:59 16° ESE 03:47:59 10° SSE visible
01 Dec 3.1 05:18:26 10° N 05:23:26 57° W 05:28:30 10° SSW visible
02 Dec 3.6 04:41:28 10° NNE 04:46:29 61° ESE 04:51:34 10° S visible
03 Dec 5.1 04:05:30 10° NE 04:09:44 27° ESE 04:14:01 10° SSE visible
04 Dec 5.9 03:31:14 10° E 03:33:11 12° ESE 03:35:09 10° SE visible
04 Dec 3.0 05:06:23 10° N 05:11:28 75° WNW 05:16:38 10° SSW visible
05 Dec 4.1 04:29:43 10° NE 04:34:35 47° ESE 04:39:31 10° S visible
06 Dec 5.5 03:54:08 10° ENE 03:57:54 21° ESE 04:01:42 10° SSE visible
06 Dec 3.5 05:31:46 10° NNW 05:36:34 41° W 05:41:25 10° SSW visible
07 Dec 3.1 04:54:26 10° NNE 04:59:32 84° ESE 05:04:42 10° S visible
08 Dec 4.6 04:18:04 10° NE 04:22:42 36° ESE 04:27:23 10° S visible
09 Dec 5.7 03:42:57 10° ENE 03:46:05 17° ESE 03:49:14 10° SSE visible
09 Dec 3.2 05:19:36 10° N 05:24:34 54° W 05:29:38 10° SSW visible
10 Dec 3.5 04:42:34 10° NNE 04:47:37 65° ESE 04:52:42 10° S visible
